| time (UTC) | temp F | wind direction | speed MPH | gust MPH | rain 1hr in | rain 24hr in | rain mn in | humidity % | barometer mb |
| 20260906212240 | 73 | 107 | 5.0 | 12.0 | 0.00 | 0.00 | 0.00 | 32 | 1025.2 |
| 20260906211739 | 72 | 109 | 5.0 | 11.0 | 0.00 | 0.00 | 0.00 | 32 | 1025.2 |
| 20260906211240 | 72 | 114 | 2.0 | 10.0 | 0.00 | 0.00 | 0.00 | 32 | 1025.2 |
| 20260906210740 | 72 | 34 | 4.0 | 10.0 | 0.00 | 0.00 | 0.00 | 32 | 1025.2 |
| 20260906210239 | 72 | 114 | 3.0 | 11.0 | 0.00 | 0.00 | 0.00 | 33 | 1025.2 |
| 20260906210004 | 72 | 130 | 5.0 | 11.0 | 0.00 | 0.00 | 0.00 | 33 | 1025.2 |
| 20260906205239 | 72 | 104 | 4.0 | 12.0 | 0.00 | 0.00 | 0.00 | 34 | 1025.2 |
| 20260906204740 | 72 | 120 | 4.0 | 12.0 | 0.00 | 0.00 | 0.00 | 34 | 1025.2 |
| 20260906204239 | 72 | 102 | 4.0 | 11.0 | 0.00 | 0.00 | 0.00 | 33 | 1025.2 |
| 20260906203739 | 73 | 97 | 5.0 | 11.0 | 0.00 | 0.00 | 0.00 | 32 | 1025.2 |
| 20260906203241 | 73 | 103 | 3.0 | 9.0 | 0.00 | 0.00 | 0.00 | 32 | 1025.2 |
| 20260906202738 | 73 | 73 | 2.0 | 9.0 | 0.00 | 0.00 | 0.00 | 32 | 1025.3 |
| 20260906202239 | 73 | 128 | 2.0 | 9.0 | 0.00 | 0.00 | 0.00 | 32 | 1025.3 |
| 20260906201738 | 73 | 65 | 3.0 | 6.0 | 0.00 | 0.00 | 0.00 | 30 | 1025.4 |
| 20260906201238 | 73 | 111 | 2.0 | 6.0 | 0.00 | 0.00 | 0.00 | 32 | 1025.4 |
| 20260906200738 | 73 | 130 | 3.0 | 6.0 | 0.00 | 0.00 | 0.00 | 32 | 1025.4 |
| 20260906200238 | 72 | 125 | 3.0 | 6.0 | 0.00 | 0.00 | 0.00 | 34 | 1025.5 |
| 20260906195738 | 72 | 49 | 2.0 | 6.0 | 0.00 | 0.00 | 0.00 | 37 | 1025.5 |
| 20260906195244 | 71 | 106 | 3.0 | 6.0 | 0.00 | 0.00 | 0.00 | 37 | 1025.6 |
| 20260906194738 | 71 | 120 | 4.0 | 6.0 | 0.00 | 0.00 | 0.00 | 37 | 1025.7 |
| 20260906194242 | 71 | 113 | 3.0 | 5.0 | 0.00 | 0.00 | 0.00 | 37 | 1025.8 |
| 20260906193737 | 71 | 45 | 2.0 | 4.0 | 0.00 | 0.00 | 0.00 | 38 | 1025.8 |
| 20260906193237 | 70 | 72 | 3.0 | 5.0 | 0.00 | 0.00 | 0.00 | 37 | 1026.0 |
| 20260906192737 | 70 | 107 | 2.0 | 7.0 | 0.00 | 0.00 | 0.00 | 37 | 1026.1 |
| 20260906192238 | 70 | 111 | 3.0 | 7.0 | 0.00 | 0.00 | 0.00 | 40 | 1026.1 |
| 20260906191738 | 69 | 96 | 2.0 | 6.0 | 0.00 | 0.00 | 0.00 | 41 | 1026.3 |
| 20260906191237 | 68 | 76 | 3.0 | 7.0 | 0.00 | 0.00 | 0.00 | 42 | 1026.4 |
| 20260906190736 | 68 | 73 | 4.0 | 7.0 | 0.00 | 0.00 | 0.00 | 44 | 1026.4 |
| 20260906190237 | 67 | 121 | 2.0 | 5.0 | 0.00 | 0.00 | 0.00 | 45 | 1026.5 |
| 20260906185736 | 67 | 90 | 2.0 | 5.0 | 0.00 | 0.00 | 0.00 | 44 | 1026.6 |
| 20260906185236 | 67 | 124 | 2.0 | 5.0 | 0.00 | 0.00 | 0.00 | 45 | 1026.7 |
| 20260906185004 | 67 | 118 | 2.0 | 5.0 | 0.00 | 0.00 | 0.00 | 45 | 1026.8 |
| 20260906184237 | 66 | 75 | 2.0 | 5.0 | 0.00 | 0.00 | 0.00 | 45 | 1026.9 |
| 20260906184001 | 66 | 89 | 2.0 | 6.0 | 0.00 | 0.00 | 0.00 | 45 | 1027.0 |
| 20260906183237 | 66 | 32 | 2.0 | 6.0 | 0.00 | 0.00 | 0.00 | 46 | 1027.1 |
| 20260906182735 | 66 | 123 | 2.0 | 4.0 | 0.00 | 0.00 | 0.00 | 46 | 1027.2 |
| 20260906182237 | 65 | 90 | 0.0 | 3.0 | 0.00 | 0.00 | 0.00 | 45 | 1027.3 |
| 20260906181736 | 65 | 48 | 1.0 | 3.0 | 0.00 | 0.00 | 0.00 | 45 | 1027.3 |
| 20260906181459 | 64 | 355 | 1.0 | 4.0 | 0.00 | 0.00 | 0.00 | 46 | 1027.6 |
| 20260906180735 | 64 | 27 | 2.0 | 4.0 | 0.00 | 0.00 | 0.00 | 45 | 1027.6 |
| 20260906180235 | 63 | 235 | 1.0 | 5.0 | 0.00 | 0.00 | 0.00 | 47 | 1027.7 |
| 20260906175735 | 63 | 104 | 3.0 | 5.0 | 0.00 | 0.00 | 0.00 | 47 | 1027.7 |
| 20260906175235 | 63 | 118 | 2.0 | 6.0 | 0.00 | 0.00 | 0.00 | 48 | 1027.8 |
| 20260906174735 | 63 | 133 | 2.0 | 6.0 | 0.00 | 0.00 | 0.00 | 49 | 1027.9 |
| 20260906174236 | 62 | 107 | 2.0 | 3.0 | 0.00 | 0.00 | 0.00 | 49 | 1027.8 |
| 20260906173739 | 62 | 212 | 0.0 | 2.0 | 0.00 | 0.00 | 0.00 | 50 | 1027.8 |
| 20260906173235 | 60 | 343 | 0.0 | 3.0 | 0.00 | 0.00 | 0.00 | 52 | 1027.9 |
| 20260906173002 | 60 | 1 | 1.0 | 3.0 | 0.00 | 0.00 | 0.00 | 53 | 1028.0 |
| 20260906172235 | 59 | 97 | 0.0 | 3.0 | 0.00 | 0.00 | 0.00 | 53 | 1028.0 |
| 20260906171735 | 59 | 56 | 1.0 | 4.0 | 0.00 | 0.00 | 0.00 | 54 | 1028.3 |
| 20260906171234 | 59 | 72 | 2.0 | 4.0 | 0.00 | 0.00 | 0.00 | 56 | 1028.3 |
| 20260906170733 | 58 | 230 | 1.0 | 4.0 | 0.00 | 0.00 | 0.00 | 56 | 1028.4 |
| 20260906170235 | 58 | 56 | 2.0 | 3.0 | 0.00 | 0.00 | 0.00 | 58 | 1028.5 |
| 20260906165734 | 57 | 321 | 1.0 | 4.0 | 0.00 | 0.00 | 0.00 | 59 | 1028.4 |
| 20260906165239 | 57 | 49 | 1.0 | 4.0 | 0.00 | 0.00 | 0.00 | 60 | 1028.5 |
| 20260906164733 | 57 | 78 | 2.0 | 4.0 | 0.00 | 0.00 | 0.00 | 60 | 1028.7 |
| 20260906164233 | 56 | 86 | 2.0 | 5.0 | 0.00 | 0.00 | 0.00 | 61 | 1028.7 |
| 20260906163734 | 56 | 111 | 1.0 | 5.0 | 0.00 | 0.00 | 0.00 | 61 | 1028.9 |
| 20260906163233 | 56 | 114 | 1.0 | 5.0 | 0.00 | 0.00 | 0.00 | 62 | 1028.9 |
| 20260906162734 | 56 | 123 | 2.0 | 5.0 | 0.00 | 0.00 | 0.00 | 64 | 1028.9 |
| 20260906162232 | 56 | 93 | 1.0 | 4.0 | 0.00 | 0.00 | 0.00 | 63 | 1028.9 |
| 20260906161734 | 55 | 80 | 1.0 | 2.0 | 0.00 | 0.00 | 0.00 | 62 | 1029.1 |
| 20260906161232 | 55 | 94 | 0.0 | 1.0 | 0.00 | 0.00 | 0.00 | 65 | 1029.1 |
| 20260906160734 | 54 | 63 | 0.0 | 1.0 | 0.00 | 0.00 | 0.00 | 66 | 1029.1 |
| 20260906160501 | 53 | 65 | 0.0 | 3.0 | 0.00 | 0.00 | 0.00 | 69 | 1029.1 |
| 20260906155950 | 52 | 59 | 1.0 | 4.0 | 0.00 | 0.00 | 0.00 | 68 | 1029.1 |
| 20260906155238 | 52 | 56 | 2.0 | 4.0 | 0.00 | 0.00 | 0.00 | 70 | 1029.2 |
| 20260906154733 | 52 | 78 | 0.0 | 1.0 | 0.00 | 0.00 | 0.00 | 70 | 1029.3 |
| 20260906154233 | 51 | 106 | 0.0 | 1.0 | 0.00 | 0.00 | 0.00 | 71 | 1029.3 |
| 20260906153733 | 51 | 145 | 0.0 | 1.0 | 0.00 | 0.00 | 0.00 | 73 | 1029.3 |
| 20260906153233 | 50 | 111 | 0.0 | 2.0 | 0.00 | 0.00 | 0.00 | 74 | 1029.4 |
| 20260906152731 | 50 | 73 | 0.0 | 2.0 | 0.00 | 0.00 | 0.00 | 75 | 1029.4 |
| 20260906152233 | 49 | 161 | 0.0 | 2.0 | 0.00 | 0.00 | 0.00 | 77 | 1029.5 |
| 20260906151732 | 48 | 130 | 0.0 | 2.0 | 0.00 | 0.00 | 0.00 | 81 | 1029.6 |
| 20260906151505 | 46 | 130 | 0.0 | 1.0 | 0.00 | 0.00 | 0.00 | 82 | 1029.6 |
| 20260906150732 | 46 | 121 | 0.0 | 2.0 | 0.00 | 0.00 | 0.00 | 85 | 1029.8 |
| 20260906150718 | 45 | 35 | 0.0 | 2.0 | 0.00 | 0.00 | 0.00 | 86 | 1029.7 |
| 20260906145939 | 44 | 61 | 1.0 | 2.0 | 0.00 | 0.00 | 0.00 | 90 | 1029.9 |
| 20260906145823 | 44 | 56 | 0.0 | 2.0 | 0.00 | 0.00 | 0.00 | 87 | 1029.8 |
| 20260906144732 | 43 | 71 | 0.0 | 1.0 | 0.00 | 0.00 | 0.00 | 93 | 1029.9 |
| 20260906144230 | 41 | 71 | 0.0 | 1.0 | 0.00 | 0.00 | 0.00 | 93 | 1029.9 |
| 20260906143732 | 40 | 79 | 0.0 | 2.0 | 0.00 | 0.00 | 0.00 | 93 | 1030.0 |
| 20260906143237 | 40 | 78 | 1.0 | 2.0 | 0.00 | 0.00 | 0.00 | 93 | 1029.9 |
| 20260906142736 | 39 | 165 | 0.0 | 0.0 | 0.00 | 0.00 | 0.00 | 93 | 1030.0 |
| 20260906142230 | 38 | 165 | 0.0 | 0.0 | 0.00 | 0.00 | 0.00 | 93 | 1030.0 |
| 20260906141731 | 38 | 165 | 0.0 | 0.0 | 0.00 | 0.00 | 0.00 | 93 | 1029.9 |
| 20260906141232 | 38 | 165 | 0.0 | 0.0 | 0.00 | 0.00 | 0.00 | 93 | 1030.0 |
| 20260906140730 | 38 | 165 | 0.0 | 0.0 | 0.00 | 0.00 | 0.00 | 92 | 1030.0 |
| 20260906140231 | 38 | 165 | 0.0 | 0.0 | 0.00 | 0.00 | 0.00 | 92 | 1030.0 |
| 20260906135730 | 38 | 165 | 0.0 | 0.0 | 0.00 | 0.00 | 0.00 | 92 | 1030.0 |
| 20260906135233 | 38 | 164 | 0.0 | 1.0 | 0.00 | 0.00 | 0.00 | 91 | 1030.0 |
| 20260906134730 | 39 | 165 | 0.0 | 1.0 | 0.00 | 0.00 | 0.00 | 93 | 1030.1 |
| 20260906134229 | 38 | 165 | 0.0 | 0.0 | 0.00 | 0.00 | 0.00 | 93 | 1030.0 |
| 20260906133729 | 38 | 165 | 0.0 | 0.0 | 0.00 | 0.00 | 0.00 | 93 | 1030.1 |
| 20260906133229 | 38 | 164 | 0.0 | 0.0 | 0.00 | 0.00 | 0.00 | 92 | 1030.2 |
| 20260906132730 | 38 | 164 | 0.0 | 0.0 | 0.00 | 0.00 | 0.00 | 92 | 1030.2 |
| 20260906132228 | 38 | 164 | 0.0 | 0.0 | 0.00 | 0.00 | 0.00 | 92 | 1030.1 |
| 20260906131730 | 38 | 164 | 0.0 | 0.0 | 0.00 | 0.00 | 0.00 | 91 | 1030.1 |
| 20260906131450 | 39 | 164 | 0.0 | 0.0 | 0.00 | 0.00 | 0.00 | 91 | 1030.1 |
| 20260906130730 | 39 | 164 | 0.0 | 0.0 | 0.00 | 0.00 | 0.00 | 90 | 1030.1 |
| 20260906130230 | 39 | 164 | 0.0 | 0.0 | 0.00 | 0.00 | 0.00 | 91 | 1030.2 |
| 20260906125729 | 39 | 164 | 0.0 | 0.0 | 0.00 | 0.00 | 0.00 | 90 | 1030.3 |
| 20260906125229 | 39 | 164 | 0.0 | 2.0 | 0.00 | 0.00 | 0.00 | 89 | 1030.3 |
| 20260906124727 | 39 | 164 | 0.0 | 2.0 | 0.00 | 0.00 | 0.00 | 90 | 1030.3 |
| 20260906124229 | 39 | 164 | 0.0 | 1.0 | 0.00 | 0.00 | 0.00 | 90 | 1030.3 |
| 20260906123728 | 40 | 164 | 0.0 | 1.0 | 0.00 | 0.00 | 0.00 | 90 | 1030.4 |
| 20260906123718 | 40 | 164 | 0.0 | 1.0 | 0.00 | 0.00 | 0.00 | 89 | 1030.3 |
| 20260906122728 | 40 | 164 | 0.0 | 1.0 | 0.00 | 0.00 | 0.00 | 89 | 1030.3 |
| 20260906122229 | 40 | 149 | 1.0 | 1.0 | 0.00 | 0.00 | 0.00 | 90 | 1030.4 |
| 20260906121727 | 40 | 204 | 0.0 | 0.0 | 0.00 | 0.00 | 0.00 | 89 | 1030.3 |
| 20260906121227 | 40 | 209 | 0.0 | 0.0 | 0.00 | 0.00 | 0.00 | 90 | 1030.4 |
| 20260906120728 | 40 | 209 | 0.0 | 0.0 | 0.00 | 0.00 | 0.00 | 89 | 1030.4 |
| 20260906120227 | 40 | 209 | 0.0 | 0.0 | 0.00 | 0.00 | 0.00 | 89 | 1030.4 |
| 20260906115728 | 40 | 209 | 0.0 | 0.0 | 0.00 | 0.00 | 0.00 | 89 | 1030.4 |
| 20260906115226 | 41 | 209 | 0.0 | 1.0 | 0.00 | 0.00 | 0.00 | 88 | 1030.3 |
| 20260906114728 | 41 | 209 | 0.0 | 1.0 | 0.00 | 0.00 | 0.00 | 87 | 1030.4 |
| 20260906114226 | 41 | 200 | 0.0 | 1.0 | 0.00 | 0.00 | 0.00 | 87 | 1030.3 |
| 20260906113728 | 41 | 197 | 0.0 | 0.0 | 0.00 | 0.00 | 0.00 | 87 | 1030.4 |
| 20260906113227 | 41 | 197 | 0.0 | 0.0 | 0.00 | 0.00 | 0.00 | 87 | 1030.4 |
| 20260906112726 | 42 | 197 | 0.0 | 0.0 | 0.00 | 0.00 | 0.00 | 86 | 1030.4 |
| 20260906112226 | 42 | 197 | 0.0 | 0.0 | 0.00 | 0.00 | 0.00 | 85 | 1030.4 |
| 20260906111726 | 42 | 197 | 0.0 | 0.0 | 0.00 | 0.00 | 0.00 | 85 | 1030.6 |
| 20260906111227 | 42 | 197 | 0.0 | 1.0 | 0.00 | 0.00 | 0.00 | 85 | 1030.4 |
| 20260906110726 | 42 | 197 | 0.0 | 1.0 | 0.00 | 0.00 | 0.00 | 85 | 1030.6 |
| 20260906110446 | 42 | 197 | 1.0 | 1.0 | 0.00 | 0.00 | 0.00 | 85 | 1030.6 |
| 20260906105725 | 42 | 199 | 0.0 | 0.0 | 0.00 | 0.00 | 0.00 | 86 | 1030.6 |
| 20260906105235 | 43 | 199 | 0.0 | 1.0 | 0.00 | 0.00 | 0.00 | 84 | 1030.7 |
| 20260906105227 | 43 | 199 | 0.0 | 1.0 | 0.00 | 0.00 | 0.00 | 84 | 1030.7 |
| 20260906104225 | 43 | 217 | 0.0 | 1.0 | 0.00 | 0.00 | 0.00 | 84 | 1030.8 |
| 20260906103953 | 43 | 217 | 0.0 | 2.0 | 0.00 | 0.00 | 0.00 | 84 | 1030.8 |
| 20260906103226 | 44 | 217 | 1.0 | 2.0 | 0.00 | 0.00 | 0.00 | 84 | 1030.7 |
| 20260906102727 | 44 | 217 | 0.0 | 1.0 | 0.00 | 0.00 | 0.00 | 85 | 1030.8 |
| 20260906102225 | 44 | 217 | 0.0 | 2.0 | 0.00 | 0.00 | 0.00 | 84 | 1030.8 |
| 20260906101727 | 44 | 217 | 2.0 | 2.0 | 0.00 | 0.00 | 0.00 | 85 | 1030.8 |
| 20260906101225 | 44 | 224 | 0.0 | 3.0 | 0.00 | 0.00 | 0.00 | 84 | 1030.8 |
| 20260906100724 | 44 | 224 | 0.0 | 3.0 | 0.00 | 0.00 | 0.00 | 83 | 1030.8 |
| 20260906100225 | 44 | 214 | 2.0 | 3.0 | 0.00 | 0.00 | 0.00 | 84 | 1030.8 |
| 20260906095948 | 44 | 204 | 1.0 | 3.0 | 0.00 | 0.00 | 0.00 | 83 | 1030.8 |
| 20260906095225 | 44 | 183 | 0.0 | 2.0 | 0.00 | 0.00 | 0.00 | 83 | 1030.7 |
| 20260906094730 | 45 | 209 | 0.0 | 2.0 | 0.00 | 0.00 | 0.00 | 84 | 1030.7 |
| 20260906094226 | 45 | 214 | 1.0 | 2.0 | 0.00 | 0.00 | 0.00 | 83 | 1030.8 |
| 20260906093945 | 45 | 213 | 1.0 | 2.0 | 0.00 | 0.00 | 0.00 | 84 | 1030.7 |
| 20260906093225 | 45 | 200 | 0.0 | 2.0 | 0.00 | 0.00 | 0.00 | 84 | 1030.7 |
| 20260906092946 | 45 | 203 | 0.0 | 1.0 | 0.00 | 0.00 | 0.00 | 84 | 1030.8 |
| 20260906092223 | 45 | 164 | 0.0 | 1.0 | 0.00 | 0.00 | 0.00 | 84 | 1030.7 |
| 20260906091723 | 45 | 162 | 0.0 | 1.0 | 0.00 | 0.00 | 0.00 | 84 | 1030.8 |
| 20260906091222 | 45 | 161 | 1.0 | 2.0 | 0.00 | 0.00 | 0.00 | 83 | 1030.9 |
| 20260906090724 | 45 | 204 | 1.0 | 2.0 | 0.00 | 0.00 | 0.00 | 85 | 1030.8 |
| 20260906090229 | 45 | 241 | 0.0 | 1.0 | 0.00 | 0.00 | 0.00 | 84 | 1030.8 |
| 20260906085725 | 45 | 214 | 0.0 | 1.0 | 0.00 | 0.00 | 0.00 | 84 | 1030.7 |
| 20260906085224 | 45 | 220 | 0.0 | 0.0 | 0.00 | 0.00 | 0.00 | 84 | 1030.8 |
| 20260906084724 | 45 | 220 | 0.0 | 0.0 | 0.00 | 0.00 | 0.00 | 84 | 1030.9 |
| 20260906084223 | 45 | 220 | 0.0 | 0.0 | 0.00 | 0.00 | 0.00 | 84 | 1031.0 |
| 20260906083728 | 45 | 200 | 0.0 | 0.0 | 0.00 | 0.00 | 0.00 | 84 | 1030.9 |
| 20260906083223 | 46 | 235 | 0.0 | 0.0 | 0.00 | 0.00 | 0.00 | 84 | 1030.9 |
| 20260906082722 | 46 | 235 | 0.0 | 0.0 | 0.00 | 0.00 | 0.00 | 83 | 1031.0 |
| 20260906082223 | 46 | 235 | 0.0 | 0.0 | 0.00 | 0.00 | 0.00 | 83 | 1031.0 |
| 20260906081722 | 46 | 235 | 0.0 | 0.0 | 0.00 | 0.00 | 0.00 | 83 | 1030.9 |
| 20260906081226 | 47 | 235 | 0.0 | 0.0 | 0.00 | 0.00 | 0.00 | 83 | 1031.0 |
| 20260906080723 | 47 | 235 | 0.0 | 0.0 | 0.00 | 0.00 | 0.00 | 84 | 1031.1 |
| 20260906080223 | 46 | 227 | 0.0 | 2.0 | 0.00 | 0.00 | 0.00 | 84 | 1031.1 |
| 20260906075947 | 46 | 204 | 0.0 | 2.0 | 0.00 | 0.00 | 0.00 | 84 | 1031.1 |
| 20260906075222 | 46 | 206 | 0.0 | 0.0 | 0.00 | 0.00 | 0.00 | 85 | 1031.0 |
| 20260906074722 | 46 | 206 | 0.0 | 0.0 | 0.00 | 0.00 | 0.00 | 84 | 1031.1 |
| 20260906074221 | 46 | 206 | 0.0 | 0.0 | 0.00 | 0.00 | 0.00 | 84 | 1031.1 |
| 20260906073722 | 47 | 206 | 0.0 | 0.0 | 0.00 | 0.00 | 0.00 | 82 | 1031.1 |
| 20260906073227 | 47 | 206 | 0.0 | 0.0 | 0.00 | 0.00 | 0.00 | 81 | 1031.1 |
| 20260906072722 | 47 | 206 | 0.0 | 0.0 | 0.00 | 0.00 | 0.00 | 81 | 1031.2 |
| 20260906072223 | 48 | 241 | 0.0 | 0.0 | 0.00 | 0.00 | 0.00 | 84 | 1031.2 |
| 20260906072209 | 47 | 241 | 0.0 | 1.0 | 0.00 | 0.00 | 0.00 | 83 | 1031.3 |
| 20260906071221 | 47 | 220 | 0.0 | 1.0 | 0.00 | 0.00 | 0.00 | 85 | 1031.2 |
| 20260906070720 | 47 | 219 | 0.0 | 1.0 | 0.00 | 0.00 | 0.00 | 85 | 1031.1 |
| 20260906070443 | 47 | 212 | 0.0 | 1.0 | 0.00 | 0.00 | 0.00 | 84 | 1031.2 |
| 20260906065945 | 47 | 212 | 0.0 | 0.0 | 0.00 | 0.00 | 0.00 | 84 | 1031.2 |
| 20260906065221 | 47 | 212 | 0.0 | 0.0 | 0.00 | 0.00 | 0.00 | 83 | 1031.2 |
| 20260906064720 | 47 | 212 | 0.0 | 0.0 | 0.00 | 0.00 | 0.00 | 84 | 1031.2 |
| 20260906064221 | 47 | 212 | 0.0 | 0.0 | 0.00 | 0.00 | 0.00 | 83 | 1031.2 |
| 20260906063723 | 47 | 212 | 0.0 | 0.0 | 0.00 | 0.00 | 0.00 | 83 | 1031.3 |
| 20260906063220 | 48 | 212 | 0.0 | 0.0 | 0.00 | 0.00 | 0.00 | 82 | 1031.3 |
| 20260906062720 | 48 | 212 | 0.0 | 0.0 | 0.00 | 0.00 | 0.00 | 82 | 1031.3 |
| 20260906062219 | 48 | 212 | 0.0 | 0.0 | 0.00 | 0.00 | 0.00 | 81 | 1031.3 |
| 20260906061719 | 49 | 212 | 0.0 | 0.0 | 0.00 | 0.00 | 0.00 | 80 | 1031.2 |
| 20260906061219 | 49 | 212 | 0.0 | 0.0 | 0.00 | 0.00 | 0.00 | 80 | 1031.1 |
| 20260906060722 | 49 | 212 | 0.0 | 0.0 | 0.00 | 0.00 | 0.00 | 79 | 1031.0 |
| 20260906060224 | 49 | 212 | 0.0 | 0.0 | 0.00 | 0.00 | 0.00 | 78 | 1031.1 |
| 20260906055943 | 49 | 212 | 0.0 | 1.0 | 0.00 | 0.00 | 0.00 | 77 | 1031.1 |
| 20260906055219 | 49 | 212 | 0.0 | 2.0 | 0.00 | 0.00 | 0.00 | 77 | 1031.1 |
| 20260906054724 | 50 | 223 | 1.0 | 2.0 | 0.00 | 0.00 | 0.00 | 79 | 1031.1 |
| 20260906054440 | 50 | 197 | 0.0 | 2.0 | 0.00 | 0.00 | 0.00 | 78 | 1031.0 |
| 20260906053718 | 50 | 185 | 0.0 | 0.0 | 0.00 | 0.00 | 0.00 | 77 | 1030.9 |
| 20260906053220 | 51 | 185 | 0.0 | 0.0 | 0.00 | 0.00 | 0.00 | 76 | 1031.0 |
| 20260906052949 | 51 | 185 | 0.0 | 0.0 | 0.00 | 0.00 | 0.00 | 76 | 1031.1 |
| 20260906052219 | 51 | 185 | 0.0 | 0.0 | 0.00 | 0.00 | 0.00 | 76 | 1031.0 |
| 20260906051934 | 52 | 185 | 0.0 | 0.0 | 0.00 | 0.00 | 0.00 | 74 | 1031.2 |
| 20260906051819 | 51 | 185 | 0.0 | 0.0 | 0.00 | 0.00 | 0.00 | 74 | 1031.2 |
| 20260906050943 | 53 | 185 | 0.0 | 0.0 | 0.00 | 0.00 | 0.00 | 75 | 1031.3 |
| 20260906050218 | 53 | 185 | 0.0 | 0.0 | 0.00 | 0.00 | 0.00 | 74 | 1031.3 |
| 20260906045718 | 53 | 185 | 0.0 | 1.0 | 0.00 | 0.00 | 0.00 | 74 | 1031.3 |
| 20260906045225 | 53 | 185 | 0.0 | 1.0 | 0.00 | 0.00 | 0.00 | 73 | 1031.3 |
| 20260906044719 | 53 | 185 | 0.0 | 1.0 | 0.00 | 0.00 | 0.00 | 73 | 1031.2 |
| 20260906044217 | 54 | 41 | 0.0 | 0.0 | 0.00 | 0.00 | 0.00 | 72 | 1031.3 |
| 20260906043719 | 55 | 41 | 0.0 | 0.0 | 0.00 | 0.00 | 0.00 | 74 | 1031.2 |
| 20260906043221 | 55 | 41 | 0.0 | 0.0 | 0.00 | 0.00 | 0.00 | 73 | 1031.2 |
| 20260906042719 | 55 | 41 | 0.0 | 0.0 | 0.00 | 0.00 | 0.00 | 73 | 1031.2 |
| 20260906042221 | 56 | 41 | 0.0 | 2.0 | 0.00 | 0.00 | 0.00 | 72 | 1031.3 |
| 20260906041716 | 56 | 41 | 0.0 | 3.0 | 0.00 | 0.00 | 0.00 | 71 | 1031.4 |
| 20260906041433 | 56 | 114 | 0.0 | 5.0 | 0.00 | 0.00 | 0.00 | 69 | 1031.3 |
| 20260906040716 | 57 | 99 | 2.0 | 5.0 | 0.00 | 0.00 | 0.00 | 69 | 1031.3 |
| 20260906040218 | 57 | 111 | 2.0 | 4.0 | 0.00 | 0.00 | 0.00 | 67 | 1031.4 |
| 20260906035717 | 57 | 109 | 1.0 | 3.0 | 0.00 | 0.00 | 0.00 | 66 | 1031.4 |
| 20260906035217 | 57 | 117 | 0.0 | 3.0 | 0.00 | 0.00 | 0.00 | 66 | 1031.3 |
| 20260906034716 | 57 | 111 | 1.0 | 3.0 | 0.00 | 0.00 | 0.00 | 65 | 1031.2 |
| 20260906034439 | 58 | 128 | 0.0 | 4.0 | 0.00 | 0.00 | 0.00 | 63 | 1031.1 |
| 20260906033715 | 58 | 154 | 1.0 | 6.0 | 0.00 | 0.00 | 0.00 | 63 | 1030.9 |
| 20260906033215 | 57 | 186 | 2.0 | 6.0 | 0.00 | 0.00 | 0.00 | 63 | 1031.0 |
| 20260906032938 | 57 | 162 | 3.0 | 4.0 | 0.00 | 0.00 | 0.00 | 64 | 1030.8 |
| 20260906032215 | 57 | 235 | 1.0 | 1.0 | 0.00 | 0.00 | 0.00 | 64 | 1030.7 |
| 20260906031943 | 58 | 235 | 0.0 | 0.0 | 0.00 | 0.00 | 0.00 | 63 | 1030.7 |
| 20260906031215 | 58 | 235 | 0.0 | 2.0 | 0.00 | 0.00 | 0.00 | 62 | 1030.7 |
| 20260906030716 | 58 | 235 | 1.0 | 2.0 | 0.00 | 0.00 | 0.00 | 62 | 1030.7 |
| 20260906030442 | 58 | 244 | 0.0 | 2.0 | 0.00 | 0.00 | 0.00 | 62 | 1030.6 |
| 20260906025714 | 58 | 220 | 0.0 | 3.0 | 0.00 | 0.00 | 0.00 | 62 | 1030.6 |
| 20260906025216 | 58 | 171 | 1.0 | 3.0 | 0.00 | 0.00 | 0.00 | 61 | 1030.6 |
| 20260906024711 | 59 | 206 | 1.0 | 3.0 | 0.00 | 0.00 | 0.00 | 61 | 1030.6 |
| 20260906024210 | 59 | 165 | 1.0 | 3.0 | 0.00 | 0.00 | 0.00 | 60 | 1030.6 |
| 20260906023714 | 59 | 140 | 1.0 | 3.0 | 0.00 | 0.00 | 0.00 | 60 | 1030.6 |
| 20260906023216 | 59 | 49 | 0.0 | 3.0 | 0.00 | 0.00 | 0.00 | 59 | 1030.6 |
| 20260906022714 | 59 | 39 | 1.0 | 3.0 | 0.00 | 0.00 | 0.00 | 59 | 1030.6 |
| 20260906022216 | 60 | 73 | 0.0 | 4.0 | 0.00 | 0.00 | 0.00 | 58 | 1030.7 |
| 20260906022200 | 60 | 23 | 0.0 | 7.0 | 0.00 | 0.00 | 0.00 | 58 | 1030.4 |
| 20260906021214 | 60 | 69 | 3.0 | 7.0 | 0.00 | 0.00 | 0.00 | 57 | 1030.3 |
| 20260906020709 | 60 | 52 | 4.0 | 6.0 | 0.00 | 0.00 | 0.00 | 55 | 1030.3 |
| 20260906020209 | 61 | 41 | 5.0 | 7.0 | 0.00 | 0.00 | 0.00 | 53 | 1030.2 |
| 20260906015711 | 61 | 45 | 3.0 | 10.0 | 0.00 | 0.00 | 0.00 | 53 | 1030.2 |
| 20260906015435 | 62 | 92 | 4.0 | 12.0 | 0.00 | 0.00 | 0.00 | 52 | 1030.1 |
| 20260906014715 | 62 | 73 | 5.0 | 15.0 | 0.00 | 0.00 | 0.00 | 50 | 1030.1 |
| 20260906014218 | 64 | 27 | 5.0 | 15.0 | 0.00 | 0.00 | 0.00 | 47 | 1030.2 |
| 20260906013718 | 65 | 31 | 3.0 | 9.0 | 0.00 | 0.00 | 0.00 | 41 | 1030.2 |
| 20260906013213 | 65 | 20 | 4.0 | 6.0 | 0.00 | 0.00 | 0.00 | 40 | 1029.7 |
| 20260906012713 | 65 | 4 | 2.0 | 7.0 | 0.00 | 0.00 | 0.00 | 41 | 1029.7 |
| 20260906012214 | 65 | 37 | 4.0 | 7.0 | 0.00 | 0.00 | 0.00 | 40 | 1029.6 |
| 20260906011712 | 65 | 338 | 3.0 | 6.0 | 0.00 | 0.00 | 0.00 | 39 | 1029.5 |
| 20260906011210 | 66 | 331 | 3.0 | 6.0 | 0.00 | 0.00 | 0.00 | 40 | 1029.5 |
| 20260906010712 | 66 | 353 | 3.0 | 6.0 | 0.00 | 0.00 | 0.00 | 39 | 1029.4 |
| 20260906010213 | 66 | 353 | 4.0 | 9.0 | 0.00 | 0.00 | 0.00 | 39 | 1029.5 |
| 20260906005712 | 67 | 334 | 5.0 | 10.0 | 0.00 | 0.00 | 0.00 | 38 | 1029.4 |
| 20260906005212 | 67 | 14 | 7.0 | 10.0 | 0.00 | 0.00 | 0.00 | 37 | 1029.4 |
| 20260906004717 | 67 | 41 | 3.0 | 10.0 | 0.00 | 0.00 | 0.00 | 39 | 1029.4 |
| 20260906004212 | 68 | 28 | 3.0 | 9.0 | 0.00 | 0.00 | 0.00 | 39 | 1029.3 |
| 20260906003712 | 68 | 347 | 2.0 | 9.0 | 0.00 | 0.00 | 0.00 | 41 | 1029.2 |
| 20260906003208 | 67 | 30 | 4.0 | 9.0 | 0.00 | 0.00 | 0.00 | 40 | 1029.3 |
| 20260906002709 | 67 | 49 | 3.0 | 9.0 | 0.00 | 0.00 | 0.00 | 39 | 1029.2 |
| 20260906002432 | 67 | 341 | 5.0 | 6.0 | 0.00 | 0.00 | 0.00 | 40 | 1029.2 |
| 20260906001712 | 67 | 56 | 2.0 | 7.0 | 0.00 | 0.00 | 0.00 | 39 | 1029.1 |
| 20260906001437 | 68 | 31 | 3.0 | 7.0 | 0.00 | 0.00 | 0.00 | 39 | 1029.2 |
| 20260906000711 | 67 | 35 | 4.0 | 7.0 | 0.00 | 0.00 | 0.00 | 39 | 1029.1 |
| 20260906000212 | 67 | 41 | 3.0 | 7.0 | 0.00 | 0.00 | 0.00 | 40 | 1029.3 |
| 20260905235715 | 67 | 330 | 4.0 | 10.0 | 0.00 | 0.00 | 0.00 | 40 | 1029.3 |
| 20260905235211 | 67 | 16 | 2.0 | 10.0 | 0.00 | 0.00 | 0.00 | 40 | 1029.3 |
| 20260905234710 | 67 | 343 | 3.0 | 11.0 | 0.00 | 0.00 | 0.00 | 39 | 1029.3 |
| 20260905234208 | 67 | 343 | 7.0 | 11.0 | 0.00 | 0.00 | 0.00 | 38 | 1029.3 |
| 20260905233710 | 67 | 39 | 6.0 | 11.0 | 0.00 | 0.00 | 0.00 | 37 | 1029.2 |
| 20260905233211 | 68 | 333 | 5.0 | 10.0 | 0.00 | 0.00 | 0.00 | 37 | 1029.2 |
| 20260905232711 | 68 | 63 | 3.0 | 12.0 | 0.00 | 0.00 | 0.00 | 38 | 1029.2 |
| 20260905232210 | 68 | 37 | 6.0 | 12.0 | 0.00 | 0.00 | 0.00 | 37 | 1029.1 |
| 20260905231709 | 69 | 44 | 4.0 | 11.0 | 0.00 | 0.00 | 0.00 | 38 | 1029.1 |
| 20260905231434 | 68 | 28 | 6.0 | 11.0 | 0.00 | 0.00 | 0.00 | 37 | 1029.2 |
| 20260905230923 | 68 | 193 | 2.0 | 9.0 | 0.00 | 0.00 | 0.00 | 36 | 1029.1 |
| 20260905230651 | 67 | 38 | 5.0 | 9.0 | 0.00 | 0.00 | 0.00 | 39 | 1029.3 |
| 20260905225710 | 66 | 37 | 5.0 | 9.0 | 0.00 | 0.00 | 0.00 | 39 | 1029.3 |
| 20260905225209 | 65 | 350 | 6.0 | 11.0 | 0.00 | 0.00 | 0.00 | 38 | 1029.2 |
| 20260905224709 | 66 | 30 | 6.0 | 11.0 | 0.00 | 0.00 | 0.00 | 37 | 1029.2 |
| 20260905224210 | 66 | 307 | 4.0 | 9.0 | 0.00 | 0.00 | 0.00 | 38 | 1029.3 |
| 20260905223709 | 66 | 343 | 3.0 | 9.0 | 0.00 | 0.00 | 0.00 | 38 | 1029.3 |
| 20260905223212 | 66 | 343 | 5.0 | 7.0 | 0.00 | 0.00 | 0.00 | 38 | 1029.3 |
| 20260905222709 | 66 | 334 | 3.0 | 7.0 | 0.00 | 0.00 | 0.00 | 38 | 1029.3 |
| 20260905222437 | 66 | 357 | 3.0 | 9.0 | 0.00 | 0.00 | 0.00 | 40 | 1029.4 |
| 20260905221708 | 66 | 334 | 3.0 | 9.0 | 0.00 | 0.00 | 0.00 | 39 | 1029.3 |
| 20260905221209 | 66 | 347 | 4.0 | 9.0 | 0.00 | 0.00 | 0.00 | 38 | 1029.3 |
| 20260905220708 | 67 | 11 | 5.0 | 7.0 | 0.00 | 0.00 | 0.00 | 38 | 1029.4 |
| 20260905220208 | 67 | 350 | 4.0 | 6.0 | 0.00 | 0.00 | 0.00 | 37 | 1029.4 |
| 20260905215708 | 68 | 8 | 2.0 | 4.0 | 0.00 | 0.00 | 0.00 | 37 | 1029.3 |
| 20260905215207 | 68 | 76 | 1.0 | 5.0 | 0.00 | 0.00 | 0.00 | 36 | 1029.3 |
| 20260905214708 | 68 | 28 | 3.0 | 7.0 | 0.00 | 0.00 | 0.00 | 37 | 1029.4 |
| 20260905214652 | 68 | 1 | 3.0 | 7.0 | 0.00 | 0.00 | 0.00 | 38 | 1029.3 |
| 20260905213706 | 68 | 28 | 4.0 | 10.0 | 0.00 | 0.00 | 0.00 | 37 | 1029.3 |
| 20260905213204 | 67 | 39 | 6.0 | 10.0 | 0.00 | 0.00 | 0.00 | 38 | 1029.3 |
| 20260905212709 | 67 | 39 | 5.0 | 9.0 | 0.00 | 0.00 | 0.00 | 39 | 1029.4 |